Time,TemperatureF,DewpointF,PressureIn,WindDirection,WindDirectionDegrees,WindSpeedMPH,WindSpeedGustMPH,Humidity,HourlyPrecipIn,Conditions,Clouds,dailyrainin,SoftwareType,DateUTC
2013-03-31 00:00:00,37.1,31.5,30.11,SSW,199,0.0,0.0,80,0.00,,,0.00,Wunderground v.1.15,2013-03-31 04:00:00,
2013-03-31 00:02:00,37.1,31.0,30.12,SSW,199,0.0,-999.0,80,-99.99,,,0.00,weatherlink.com 1.10,2013-03-31 04:02:00,
2013-03-31 00:07:00,36.7,31.1,30.12,SSW,199,0.0,0.0,80,0.00,,,0.00,Wunderground v.1.15,2013-03-31 04:07:00,
2013-03-31 00:10:00,36.6,31.0,30.12,SSW,199,0.0,0.0,80,0.00,,,0.00,Wunderground v.1.15,2013-03-31 04:10:00,
2013-03-31 00:15:00,36.3,31.0,30.12,SSW,199,0.0,0.0,81,0.00,,,0.00,Wunderground v.1.15,2013-03-31 04:15:00,
2013-03-31 00:20:00,36.1,31.1,30.12,SSW,199,0.0,0.0,82,0.00,,,0.00,Wunderground v.1.15,2013-03-31 04:20:00,
2013-03-31 00:25:00,36.0,31.0,30.12,SSW,199,0.0,0.0,82,0.00,,,0.00,Wunderground v.1.15,2013-03-31 04:25:00,
2013-03-31 00:31:00,35.7,30.7,30.12,SSW,199,0.0,0.0,82,0.00,,,0.00,Wunderground v.1.15,2013-03-31 04:31:00,
2013-03-31 00:36:00,35.6,30.9,30.12,SSW,199,0.0,0.0,83,0.00,,,0.00,Wunderground v.1.15,2013-03-31 04:36:00,
2013-03-31 00:42:00,35.5,30.8,30.12,SSW,199,0.0,0.0,83,0.00,,,0.00,Wunderground v.1.15,2013-03-31 04:42:00,
2013-03-31 00:48:00,35.4,31.0,30.12,SSW,199,0.0,0.0,84,0.00,,,0.00,Wunderground v.1.15,2013-03-31 04:48:00,
2013-03-31 00:53:00,35.3,30.9,30.12,SSW,199,0.0,0.0,84,0.00,,,0.00,Wunderground v.1.15,2013-03-31 04:53:00,
2013-03-31 00:58:00,35.2,30.9,30.12,SSW,199,0.0,0.0,84,0.00,,,0.00,Wunderground v.1.15,2013-03-31 04:58:00,
2013-03-31 01:03:00,35.1,30.8,30.12,SSW,199,0.0,0.0,84,0.00,,,0.00,Wunderground v.1.15,2013-03-31 05:03:00,
2013-03-31 01:09:00,34.8,30.5,30.12,SSW,199,0.0,0.0,84,0.00,,,0.00,Wunderground v.1.15,2013-03-31 05:09:00,
2013-03-31 01:15:00,34.6,31.0,30.12,SSW,199,0.0,-999.0,85,-99.99,,,0.00,weatherlink.com 1.10,2013-03-31 05:15:00,
2013-03-31 01:20:00,34.6,30.6,30.12,SSW,199,0.0,0.0,85,0.00,,,0.00,Wunderground v.1.15,2013-03-31 05:20:00,
2013-03-31 01:25:00,34.4,30.4,30.12,SSW,199,0.0,0.0,85,0.00,,,0.00,Wunderground v.1.15,2013-03-31 05:25:00,
2013-03-31 01:30:00,34.3,30.3,30.12,SSW,199,0.0,0.0,85,0.00,,,0.00,Wunderground v.1.15,2013-03-31 05:30:00,
2013-03-31 01:37:00,34.0,30.3,30.12,SSW,199,0.0,0.0,86,0.00,,,0.00,Wunderground v.1.15,2013-03-31 05:37:00,
2013-03-31 01:43:00,33.8,29.8,30.11,SSW,199,0.0,0.0,85,0.00,,,0.00,Wunderground v.1.15,2013-03-31 05:43:00,
2013-03-31 01:49:00,33.6,30.1,30.11,SSW,199,0.0,0.0,87,0.00,,,0.00,Wunderground v.1.15,2013-03-31 05:49:00,
2013-03-31 01:54:00,33.5,30.0,30.11,SSW,199,0.0,0.0,87,0.00,,,0.00,Wunderground v.1.15,2013-03-31 05:54:00,
2013-03-31 01:59:00,33.4,29.9,30.11,SSW,199,0.0,0.0,87,0.00,,,0.00,Wunderground v.1.15,2013-03-31 05:59:00,
2013-03-31 02:04:00,33.3,29.8,30.11,SSW,199,0.0,0.0,87,0.00,,,0.00,Wunderground v.1.15,2013-03-31 06:04:00,
2013-03-31 02:09:00,33.2,29.8,30.10,SSW,199,0.0,0.0,87,0.00,,,0.00,Wunderground v.1.15,2013-03-31 06:09:00,
2013-03-31 02:14:00,33.1,29.7,30.10,SSW,199,0.0,0.0,87,0.00,,,0.00,Wunderground v.1.15,2013-03-31 06:14:00,
2013-03-31 02:19:00,32.9,29.5,30.11,SSW,199,0.0,0.0,87,0.00,,,0.00,Wunderground v.1.15,2013-03-31 06:19:00,
2013-03-31 02:24:00,32.9,29.5,30.11,SSW,199,0.0,0.0,87,0.00,,,0.00,Wunderground v.1.15,2013-03-31 06:24:00,
2013-03-31 02:29:00,32.8,29.4,30.10,SSW,199,0.0,0.0,87,0.00,,,0.00,Wunderground v.1.15,2013-03-31 06:29:00,
2013-03-31 02:34:00,32.6,28.9,30.11,SSW,199,0.0,0.0,86,0.00,,,0.00,Wunderground v.1.15,2013-03-31 06:34:00,
2013-03-31 02:39:00,32.5,29.1,30.11,SSW,199,0.0,0.0,87,0.00,,,0.00,Wunderground v.1.15,2013-03-31 06:39:00,
2013-03-31 02:44:00,32.3,28.9,30.11,SSW,199,0.0,0.0,87,0.00,,,0.00,Wunderground v.1.15,2013-03-31 06:44:00,
2013-03-31 02:49:00,32.2,28.8,30.11,SSW,199,0.0,0.0,87,0.00,,,0.00,Wunderground v.1.15,2013-03-31 06:49:00,
2013-03-31 02:54:00,32.1,28.7,30.11,SSW,199,0.0,0.0,87,0.00,,,0.00,Wunderground v.1.15,2013-03-31 06:54:00,
2013-03-31 02:59:00,31.9,28.8,30.11,SSW,199,0.0,0.0,88,0.00,,,0.00,Wunderground v.1.15,2013-03-31 06:59:00,
2013-03-31 03:04:00,31.7,28.6,30.11,SSW,199,0.0,0.0,88,0.00,,,0.00,Wunderground v.1.15,2013-03-31 07:04:00,
2013-03-31 03:09:00,31.6,28.5,30.11,SSW,199,0.0,0.0,88,0.00,,,0.00,Wunderground v.1.15,2013-03-31 07:09:00,
2013-03-31 03:14:00,31.5,28.4,30.10,SSW,199,0.0,0.0,88,0.00,,,0.00,Wunderground v.1.15,2013-03-31 07:14:00,
2013-03-31 03:19:00,31.4,28.3,30.10,SSW,199,0.0,0.0,88,0.00,,,0.00,Wunderground v.1.15,2013-03-31 07:19:00,
2013-03-31 03:24:00,31.2,28.3,30.10,SSW,199,0.0,0.0,89,0.00,,,0.00,Wunderground v.1.15,2013-03-31 07:24:00,
2013-03-31 03:29:00,31.2,28.3,30.10,SSW,199,0.0,0.0,89,0.00,,,0.00,Wunderground v.1.15,2013-03-31 07:29:00,
2013-03-31 03:34:00,31.1,28.2,30.10,SSW,199,0.0,0.0,89,0.00,,,0.00,Wunderground v.1.15,2013-03-31 07:34:00,
2013-03-31 03:39:00,31.0,28.1,30.10,SSW,199,0.0,0.0,89,0.00,,,0.00,Wunderground v.1.15,2013-03-31 07:39:00,
2013-03-31 03:44:00,31.0,28.1,30.10,SSW,199,0.0,0.0,89,0.00,,,0.00,Wunderground v.1.15,2013-03-31 07:44:00,
2013-03-31 03:49:00,31.0,28.1,30.10,SSW,199,0.0,0.0,89,0.00,,,0.00,Wunderground v.1.15,2013-03-31 07:49:00,
2013-03-31 03:54:00,31.0,28.4,30.10,SSW,199,0.0,0.0,90,0.00,,,0.00,Wunderground v.1.15,2013-03-31 07:54:00,
2013-03-31 03:59:00,31.0,28.1,30.10,SSW,199,0.0,0.0,89,0.00,,,0.00,Wunderground v.1.15,2013-03-31 07:59:00,
2013-03-31 04:04:00,30.9,28.0,30.10,SSW,199,0.0,0.0,89,0.00,,,0.00,Wunderground v.1.15,2013-03-31 08:04:00,
2013-03-31 04:09:00,30.9,28.0,30.10,SSW,199,0.0,0.0,89,0.00,,,0.00,Wunderground v.1.15,2013-03-31 08:09:00,
2013-03-31 04:14:00,30.9,28.3,30.10,SSW,199,0.0,0.0,90,0.00,,,0.00,Wunderground v.1.15,2013-03-31 08:14:00,
2013-03-31 04:19:00,30.8,28.2,30.10,SSW,199,0.0,0.0,90,0.00,,,0.00,Wunderground v.1.15,2013-03-31 08:19:00,
2013-03-31 04:24:00,30.9,28.3,30.10,SSW,199,0.0,0.0,90,0.00,,,0.00,Wunderground v.1.15,2013-03-31 08:24:00,
2013-03-31 04:29:00,30.8,28.2,30.10,SSW,199,0.0,0.0,90,0.00,,,0.00,Wunderground v.1.15,2013-03-31 08:29:00,
2013-03-31 04:34:00,30.8,28.2,30.11,SSW,199,0.0,0.0,90,0.00,,,0.00,Wunderground v.1.15,2013-03-31 08:34:00,
2013-03-31 04:39:00,30.7,28.1,30.11,SSW,199,0.0,0.0,90,0.00,,,0.00,Wunderground v.1.15,2013-03-31 08:39:00,
2013-03-31 04:44:00,30.7,28.1,30.10,SSW,199,0.0,0.0,90,0.00,,,0.00,Wunderground v.1.15,2013-03-31 08:44:00,
2013-03-31 04:49:00,30.6,28.0,30.10,SSW,199,0.0,1.0,90,0.00,,,0.00,Wunderground v.1.15,2013-03-31 08:49:00,
2013-03-31 04:54:00,30.6,28.3,30.10,SSW,199,0.0,0.0,91,0.00,,,0.00,Wunderground v.1.15,2013-03-31 08:54:00,
2013-03-31 04:59:00,30.5,27.9,30.10,SSW,199,0.0,0.0,90,0.00,,,0.00,Wunderground v.1.15,2013-03-31 08:59:00,
2013-03-31 05:04:00,30.5,27.9,30.10,SSW,199,0.0,0.0,90,0.00,,,0.00,Wunderground v.1.15,2013-03-31 09:04:00,
2013-03-31 05:09:00,30.4,27.8,30.10,SSW,199,0.0,0.0,90,0.00,,,0.00,Wunderground v.1.15,2013-03-31 09:09:00,
2013-03-31 05:14:00,30.4,28.1,30.10,SSW,199,0.0,0.0,91,0.00,,,0.00,Wunderground v.1.15,2013-03-31 09:14:00,
2013-03-31 05:19:00,30.3,27.7,30.10,SSW,199,0.0,0.0,90,0.00,,,0.00,Wunderground v.1.15,2013-03-31 09:19:00,
2013-03-31 05:24:00,30.2,27.9,30.10,SSW,199,0.0,0.0,91,0.00,,,0.00,Wunderground v.1.15,2013-03-31 09:24:00,
2013-03-31 05:29:00,30.2,27.9,30.10,SSW,199,0.0,0.0,91,0.00,,,0.00,Wunderground v.1.15,2013-03-31 09:29:00,
2013-03-31 05:34:00,30.1,27.5,30.10,SSW,199,0.0,0.0,90,0.00,,,0.00,Wunderground v.1.15,2013-03-31 09:34:00,
2013-03-31 05:39:00,30.0,27.7,30.10,SSW,199,0.0,0.0,91,0.00,,,0.00,Wunderground v.1.15,2013-03-31 09:39:00,
2013-03-31 05:44:00,29.9,27.6,30.10,SSW,199,0.0,0.0,91,0.00,,,0.00,Wunderground v.1.15,2013-03-31 09:44:00,
2013-03-31 05:49:00,29.9,27.6,30.10,SSW,199,0.0,0.0,91,0.00,,,0.00,Wunderground v.1.15,2013-03-31 09:49:00,
2013-03-31 05:54:00,29.9,27.6,30.10,SSW,199,0.0,0.0,91,0.00,,,0.00,Wunderground v.1.15,2013-03-31 09:54:00,
2013-03-31 05:59:00,29.9,27.6,30.10,SSW,199,0.0,0.0,91,0.00,,,0.00,Wunderground v.1.15,2013-03-31 09:59:00,
2013-03-31 06:04:00,29.8,27.5,30.10,SSW,199,0.0,0.0,91,0.00,,,0.00,Wunderground v.1.15,2013-03-31 10:04:00,
2013-03-31 06:09:00,29.8,27.5,30.10,SSW,199,0.0,0.0,91,0.00,,,0.00,Wunderground v.1.15,2013-03-31 10:09:00,
2013-03-31 06:14:00,29.8,27.5,30.10,SSW,199,0.0,0.0,91,0.00,,,0.00,Wunderground v.1.15,2013-03-31 10:14:00,
2013-03-31 06:19:00,29.7,27.4,30.10,SSW,199,0.0,0.0,91,0.00,,,0.00,Wunderground v.1.15,2013-03-31 10:19:00,
2013-03-31 06:24:00,29.7,27.4,30.10,SSW,199,0.0,0.0,91,0.00,,,0.00,Wunderground v.1.15,2013-03-31 10:24:00,
2013-03-31 06:29:00,29.7,27.4,30.10,SSW,199,0.0,0.0,91,0.00,,,0.00,Wunderground v.1.15,2013-03-31 10:29:00,
2013-03-31 06:35:00,29.7,27.4,30.10,SSW,199,0.0,0.0,91,0.00,,,0.00,Wunderground v.1.15,2013-03-31 10:35:00,
2013-03-31 06:40:00,29.6,27.0,30.10,SSW,199,0.0,0.0,90,0.00,,,0.00,Wunderground v.1.15,2013-03-31 10:40:00,
2013-03-31 06:45:00,29.6,27.3,30.10,SSW,199,0.0,0.0,91,0.00,,,0.00,Wunderground v.1.15,2013-03-31 10:45:00,
2013-03-31 06:50:00,29.6,27.3,30.10,SSW,199,0.0,0.0,91,0.00,,,0.00,Wunderground v.1.15,2013-03-31 10:50:00,
2013-03-31 06:55:00,29.6,27.3,30.11,SSW,199,1.0,2.0,91,0.00,,,0.00,Wunderground v.1.15,2013-03-31 10:55:00,
2013-03-31 07:00:00,29.7,27.4,30.11,SSW,199,0.0,0.0,91,0.00,,,0.00,Wunderground v.1.15,2013-03-31 11:00:00,
2013-03-31 07:05:00,29.8,27.5,30.11,SSW,199,0.0,0.0,91,0.00,,,0.00,Wunderground v.1.15,2013-03-31 11:05:00,
2013-03-31 07:10:00,29.8,27.5,30.11,SSW,199,0.0,0.0,91,0.00,,,0.00,Wunderground v.1.15,2013-03-31 11:10:00,
2013-03-31 07:15:00,29.9,27.6,30.11,SSW,199,0.0,0.0,91,0.00,,,0.00,Wunderground v.1.15,2013-03-31 11:15:00,
2013-03-31 07:20:00,30.0,27.7,30.11,SSW,199,0.0,0.0,91,0.00,,,0.00,Wunderground v.1.15,2013-03-31 11:20:00,
2013-03-31 07:25:00,30.1,27.8,30.11,SSW,199,0.0,0.0,91,0.00,,,0.00,Wunderground v.1.15,2013-03-31 11:25:00,
2013-03-31 07:30:00,30.3,28.0,30.11,SSW,199,0.0,0.0,91,0.00,,,0.00,Wunderground v.1.15,2013-03-31 11:30:00,
2013-03-31 07:35:00,30.6,28.6,30.11,SSW,199,0.0,0.0,92,0.00,,,0.00,Wunderground v.1.15,2013-03-31 11:35:00,
2013-03-31 07:40:00,31.0,28.9,30.10,SSW,199,0.0,0.0,92,0.00,,,0.00,Wunderground v.1.15,2013-03-31 11:40:00,
2013-03-31 07:45:00,31.4,29.1,30.10,SSW,199,0.0,0.0,91,0.00,,,0.00,Wunderground v.1.15,2013-03-31 11:45:00,
2013-03-31 07:50:00,31.9,29.6,30.10,SSW,199,0.0,0.0,91,0.00,,,0.00,Wunderground v.1.15,2013-03-31 11:50:00,
2013-03-31 07:55:00,32.3,30.0,30.10,SSW,199,0.0,0.0,91,0.00,,,0.00,Wunderground v.1.15,2013-03-31 11:55:00,
2013-03-31 08:00:00,32.9,30.6,30.10,SSW,199,0.0,0.0,91,0.00,,,0.00,Wunderground v.1.15,2013-03-31 12:00:00,
2013-03-31 08:05:00,33.5,31.2,30.10,SSW,199,0.0,0.0,91,0.00,,,0.00,Wunderground v.1.15,2013-03-31 12:05:00,
2013-03-31 08:10:00,34.1,30.9,30.10,SSW,199,0.0,0.0,88,0.00,,,0.00,Wunderground v.1.15,2013-03-31 12:10:00,
2013-03-31 08:15:00,34.7,31.2,30.10,SSW,199,0.0,0.0,87,0.00,,,0.00,Wunderground v.1.15,2013-03-31 12:15:00,
2013-03-31 08:20:00,35.3,31.8,30.10,SSW,199,0.0,0.0,87,0.00,,,0.00,Wunderground v.1.15,2013-03-31 12:20:00,
2013-03-31 08:25:00,36.2,32.7,30.10,SSW,199,0.0,0.0,87,0.00,,,0.00,Wunderground v.1.15,2013-03-31 12:25:00,
2013-03-31 08:30:00,37.1,32.7,30.10,SSW,199,0.0,0.0,84,0.00,,,0.00,Wunderground v.1.15,2013-03-31 12:30:00,
2013-03-31 08:35:00,38.0,33.6,30.10,SSW,199,0.0,0.0,84,0.00,,,0.00,Wunderground v.1.15,2013-03-31 12:35:00,
2013-03-31 08:41:00,38.8,34.4,30.10,SSW,199,0.0,0.0,84,0.00,,,0.00,Wunderground v.1.15,2013-03-31 12:41:00,
2013-03-31 08:46:00,39.7,35.3,30.10,SSW,199,0.0,0.0,84,0.00,,,0.00,Wunderground v.1.15,2013-03-31 12:46:00,
2013-03-31 08:50:00,40.6,35.5,30.09,SSW,198,1.0,2.0,82,0.00,,,0.00,Wunderground v.1.15,2013-03-31 12:50:00,
2013-03-31 08:55:00,41.7,36.9,30.09,South,186,0.0,2.0,83,0.00,,,0.00,Wunderground v.1.15,2013-03-31 12:55:00,
2013-03-31 09:00:00,42.7,36.6,30.10,South,186,0.0,1.0,79,0.00,,,0.00,Wunderground v.1.15,2013-03-31 13:00:00,
2013-03-31 09:05:00,43.5,37.7,30.09,SSE,157,3.0,3.0,80,0.00,,,0.00,Wunderground v.1.15,2013-03-31 13:05:00,
2013-03-31 09:11:00,44.3,37.9,30.10,SSE,148,0.0,3.0,78,0.00,,,0.00,Wunderground v.1.15,2013-03-31 13:11:00,
2013-03-31 09:16:00,44.9,38.1,30.09,SSE,159,0.0,3.0,77,0.00,,,0.00,Wunderground v.1.15,2013-03-31 13:16:00,
2013-03-31 09:20:00,45.5,38.4,30.09,ESE,122,0.0,1.0,76,0.00,,,0.00,Wunderground v.1.15,2013-03-31 13:20:00,
2013-03-31 09:25:00,46.0,37.5,30.10,SSE,151,2.0,4.0,72,0.00,,,0.00,Wunderground v.1.15,2013-03-31 13:25:00,
2013-03-31 09:31:00,46.6,38.1,30.10,SE,140,3.0,4.0,72,0.00,,,0.00,Wunderground v.1.15,2013-03-31 13:31:00,
2013-03-31 09:36:00,47.0,37.7,30.10,ESE,115,5.0,7.0,70,0.00,,,0.00,Wunderground v.1.15,2013-03-31 13:36:00,
2013-03-31 09:41:00,47.2,38.6,30.10,South,175,3.0,4.0,72,0.00,,,0.00,Wunderground v.1.15,2013-03-31 13:41:00,
2013-03-31 09:46:00,47.3,38.7,30.10,ESE,121,2.0,5.0,72,0.00,,,0.00,Wunderground v.1.15,2013-03-31 13:46:00,
2013-03-31 09:51:00,47.5,38.6,30.10,SSE,159,2.0,6.0,71,0.00,,,0.00,Wunderground v.1.15,2013-03-31 13:51:00,
2013-03-31 09:56:00,47.7,39.1,30.09,SE,139,4.0,6.0,72,0.00,,,0.00,Wunderground v.1.15,2013-03-31 13:56:00,
2013-03-31 10:01:00,47.8,39.2,30.10,SE,132,3.0,5.0,72,0.00,,,0.00,Wunderground v.1.15,2013-03-31 14:01:00,
2013-03-31 10:06:00,48.1,39.5,30.10,SSE,155,2.0,5.0,72,0.00,,,0.00,Wunderground v.1.15,2013-03-31 14:06:00,
2013-03-31 10:11:00,48.6,39.6,30.09,SE,142,2.0,4.0,71,0.00,,,0.00,Wunderground v.1.15,2013-03-31 14:11:00,
2013-03-31 10:16:00,49.1,39.7,30.09,South,186,2.0,4.0,70,0.00,,,0.00,Wunderground v.1.15,2013-03-31 14:16:00,
2013-03-31 10:21:00,49.5,40.1,30.09,SE,137,1.0,2.0,70,0.00,,,0.00,Wunderground v.1.15,2013-03-31 14:21:00,
2013-03-31 10:26:00,49.9,40.1,30.09,SE,138,0.0,4.0,69,0.00,,,0.00,Wunderground v.1.15,2013-03-31 14:26:00,
2013-03-31 10:32:00,50.4,41.0,30.09,SE,132,3.0,6.0,70,0.00,,,0.00,Wunderground v.1.15,2013-03-31 14:32:00,
2013-03-31 10:37:00,50.6,40.8,30.09,ESE,123,4.0,6.0,69,0.00,,,0.00,Wunderground v.1.15,2013-03-31 14:37:00,
2013-03-31 10:42:00,51.0,39.6,30.09,SSE,167,3.0,4.0,65,0.00,,,0.00,Wunderground v.1.15,2013-03-31 14:42:00,
2013-03-31 10:47:00,51.3,40.7,30.09,SSE,150,3.0,6.0,67,0.00,,,0.00,Wunderground v.1.15,2013-03-31 14:47:00,
2013-03-31 10:52:00,51.6,40.6,30.09,SE,134,2.0,5.0,66,0.00,,,0.00,Wunderground v.1.15,2013-03-31 14:52:00,
2013-03-31 10:57:00,51.8,39.2,30.08,SE,143,3.0,6.0,62,0.00,,,0.00,Wunderground v.1.15,2013-03-31 14:57:00,
2013-03-31 11:02:00,52.2,38.3,30.08,SSW,198,3.0,4.0,59,0.00,,,0.00,Wunderground v.1.15,2013-03-31 15:02:00,
2013-03-31 11:07:00,52.6,36.9,30.08,South,177,2.0,5.0,55,0.00,,,0.00,Wunderground v.1.15,2013-03-31 15:07:00,
2013-03-31 11:12:00,53.1,39.1,30.08,ESE,123,6.0,6.0,59,0.00,,,0.00,Wunderground v.1.15,2013-03-31 15:12:00,
2013-03-31 11:17:00,53.6,39.2,30.08,South,186,2.0,6.0,58,0.00,,,0.00,Wunderground v.1.15,2013-03-31 15:17:00,
2013-03-31 11:22:00,54.4,39.0,30.08,SSW,192,3.0,6.0,56,0.00,,,0.00,Wunderground v.1.15,2013-03-31 15:22:00,
2013-03-31 11:28:00,54.5,38.2,30.08,South,190,1.0,8.0,54,0.00,,,0.00,Wunderground v.1.15,2013-03-31 15:28:00,
2013-03-31 11:33:00,54.8,38.5,30.08,SE,130,1.0,5.0,54,0.00,,,0.00,Wunderground v.1.15,2013-03-31 15:33:00,
2013-03-31 11:38:00,55.2,37.9,30.08,South,184,4.0,6.0,52,0.00,,,0.00,Wunderground v.1.15,2013-03-31 15:38:00,
2013-03-31 11:44:00,55.4,37.6,30.08,SSW,192,2.0,5.0,51,0.00,,,0.00,Wunderground v.1.15,2013-03-31 15:44:00,
2013-03-31 11:48:00,55.7,38.8,30.08,SE,138,2.0,6.0,53,0.00,,,0.00,Wunderground v.1.15,2013-03-31 15:48:00,
2013-03-31 11:54:00,55.9,38.0,30.08,South,179,4.0,6.0,51,0.00,,,0.00,Wunderground v.1.15,2013-03-31 15:54:00,
2013-03-31 11:59:00,55.9,38.0,30.08,SSE,163,5.0,7.0,51,0.00,,,0.00,Wunderground v.1.15,2013-03-31 15:59:00,
2013-03-31 12:04:00,55.7,38.3,30.08,SSE,158,1.0,7.0,52,0.00,,,0.00,Wunderground v.1.15,2013-03-31 16:04:00,
2013-03-31 12:09:00,55.6,38.2,30.08,SSW,201,3.0,7.0,52,0.00,,,0.00,Wunderground v.1.15,2013-03-31 16:09:00,
2013-03-31 12:14:00,55.3,38.4,30.08,South,178,4.0,7.0,53,0.00,,,0.00,Wunderground v.1.15,2013-03-31 16:14:00,
2013-03-31 12:19:00,55.0,37.7,30.08,South,178,4.0,9.0,52,0.00,,,0.00,Wunderground v.1.15,2013-03-31 16:19:00,
2013-03-31 12:24:00,54.9,38.1,30.07,SE,134,5.0,7.0,53,0.00,,,0.00,Wunderground v.1.15,2013-03-31 16:24:00,
2013-03-31 12:29:00,54.8,38.5,30.07,SE,142,1.0,9.0,54,0.00,,,0.00,Wunderground v.1.15,2013-03-31 16:29:00,
2013-03-31 12:34:00,54.8,38.5,30.07,South,186,5.0,7.0,54,0.00,,,0.00,Wunderground v.1.15,2013-03-31 16:34:00,
2013-03-31 12:39:00,54.6,38.3,30.07,SE,136,5.0,7.0,54,0.00,,,0.00,Wunderground v.1.15,2013-03-31 16:39:00,
2013-03-31 12:44:00,54.4,39.0,30.07,South,173,6.0,8.0,56,0.00,,,0.00,Wunderground v.1.15,2013-03-31 16:44:00,
2013-03-31 12:49:00,54.2,38.4,30.07,South,180,3.0,10.0,55,0.00,,,0.00,Wunderground v.1.15,2013-03-31 16:49:00,
2013-03-31 12:54:00,54.1,38.7,30.06,South,174,7.0,7.0,56,0.00,,,0.00,Wunderground v.1.15,2013-03-31 16:54:00,
2013-03-31 12:59:00,54.0,39.1,30.06,ESE,118,3.0,8.0,57,0.00,,,0.00,Wunderground v.1.15,2013-03-31 16:59:00,
2013-03-31 13:04:00,53.9,38.6,30.06,ESE,121,4.0,6.0,56,0.00,,,0.00,Wunderground v.1.15,2013-03-31 17:04:00,
2013-03-31 13:09:00,53.9,39.0,30.06,SSE,155,3.0,7.0,57,0.00,,,0.00,Wunderground v.1.15,2013-03-31 17:09:00,
2013-03-31 13:14:00,53.9,38.1,30.06,South,175,4.0,8.0,55,0.00,,,0.00,Wunderground v.1.15,2013-03-31 17:14:00,
2013-03-31 13:19:00,54.0,37.7,30.05,South,177,4.0,8.0,54,0.00,,,0.00,Wunderground v.1.15,2013-03-31 17:19:00,
2013-03-31 13:24:00,54.1,37.3,30.05,South,186,1.0,7.0,53,0.00,,,0.00,Wunderground v.1.15,2013-03-31 17:24:00,
2013-03-31 13:29:00,54.2,37.4,30.05,SSW,207,4.0,9.0,53,0.00,,,0.00,Wunderground v.1.15,2013-03-31 17:29:00,
2013-03-31 13:34:00,54.4,36.6,30.04,SSW,202,0.0,8.0,51,0.00,,,0.00,Wunderground v.1.15,2013-03-31 17:34:00,
2013-03-31 13:39:00,54.8,36.0,30.05,SSE,165,4.0,10.0,49,0.00,,,0.00,Wunderground v.1.15,2013-03-31 17:39:00,
2013-03-31 13:44:00,55.1,35.2,30.04,SE,137,4.0,7.0,47,0.00,,,0.00,Wunderground v.1.15,2013-03-31 17:44:00,
2013-03-31 13:49:00,55.5,35.6,30.04,SE,137,5.0,7.0,47,0.00,,,0.00,Wunderground v.1.15,2013-03-31 17:49:00,
2013-03-31 13:54:00,55.7,34.1,30.04,SSW,194,1.0,10.0,44,0.00,,,0.00,Wunderground v.1.15,2013-03-31 17:54:00,
2013-03-31 13:59:00,56.0,34.4,30.03,South,171,0.0,10.0,44,0.00,,,0.00,Wunderground v.1.15,2013-03-31 17:59:00,
2013-03-31 14:05:00,56.3,34.6,30.03,ESE,117,1.0,6.0,44,0.00,,,0.00,Wunderground v.1.15,2013-03-31 18:05:00,
2013-03-31 14:10:00,56.6,34.3,30.03,South,171,3.0,3.0,43,0.00,,,0.00,Wunderground v.1.15,2013-03-31 18:10:00,
2013-03-31 14:15:00,56.6,35.5,30.03,SSE,150,6.0,7.0,45,0.00,,,0.00,Wunderground v.1.15,2013-03-31 18:15:00,
2013-03-31 14:20:00,56.4,35.9,30.03,East,91,5.0,9.0,46,0.00,,,0.00,Wunderground v.1.15,2013-03-31 18:20:00,
2013-03-31 14:25:00,55.9,35.9,30.02,East,100,6.0,9.0,47,0.00,,,0.00,Wunderground v.1.15,2013-03-31 18:25:00,
2013-03-31 14:30:00,55.4,36.5,30.02,SE,135,5.0,5.0,49,0.00,,,0.00,Wunderground v.1.15,2013-03-31 18:30:00,
2013-03-31 14:35:00,55.3,37.0,30.02,SSW,202,4.0,9.0,50,0.00,,,0.00,Wunderground v.1.15,2013-03-31 18:35:00,
2013-03-31 14:40:00,55.1,37.8,30.02,SSE,147,5.0,5.0,52,0.00,,,0.00,Wunderground v.1.15,2013-03-31 18:40:00,
2013-03-31 14:45:00,54.9,37.6,30.02,SE,135,5.0,8.0,52,0.00,,,0.00,Wunderground v.1.15,2013-03-31 18:45:00,
2013-03-31 14:50:00,54.7,38.4,30.01,South,173,4.0,5.0,54,0.00,,,0.00,Wunderground v.1.15,2013-03-31 18:50:00,
2013-03-31 14:55:00,54.3,38.0,30.01,SE,125,4.0,6.0,54,0.00,,,0.00,Wunderground v.1.15,2013-03-31 18:55:00,
2013-03-31 15:00:00,53.8,38.5,30.01,SSE,154,3.0,5.0,56,0.00,,,0.00,Wunderground v.1.15,2013-03-31 19:00:00,
2013-03-31 15:05:00,53.3,38.9,30.01,SSE,163,3.0,6.0,58,0.00,,,0.00,Wunderground v.1.15,2013-03-31 19:05:00,
2013-03-31 15:10:00,52.9,39.0,30.01,SE,141,1.0,5.0,59,0.00,,,0.00,Wunderground v.1.15,2013-03-31 19:10:00,
2013-03-31 15:15:00,52.6,39.5,30.00,SSE,168,4.0,6.0,61,0.00,,,0.00,Wunderground v.1.15,2013-03-31 19:15:00,
2013-03-31 15:20:00,52.3,39.7,30.00,SSE,164,4.0,4.0,62,0.00,,,0.00,Wunderground v.1.15,2013-03-31 19:20:00,
2013-03-31 15:25:00,52.0,40.2,30.00,South,181,5.0,6.0,64,0.00,,,0.00,Wunderground v.1.15,2013-03-31 19:25:00,
2013-03-31 15:30:00,51.4,40.0,30.00,SE,142,4.0,6.0,65,0.00,,,0.00,Wunderground v.1.15,2013-03-31 19:30:00,
2013-03-31 15:35:00,51.1,40.5,30.00,SSE,149,5.0,7.0,67,0.00,,,0.00,Wunderground v.1.15,2013-03-31 19:35:00,
2013-03-31 15:40:00,50.8,40.6,29.99,South,175,3.0,4.0,68,0.00,,,0.00,Wunderground v.1.15,2013-03-31 19:40:00,
2013-03-31 15:45:00,50.7,40.5,29.99,SSE,157,2.0,5.0,68,0.00,,,0.00,Wunderground v.1.15,2013-03-31 19:45:00,
2013-03-31 15:50:00,50.6,40.4,29.99,SE,136,3.0,4.0,68,0.00,,,0.00,Wunderground v.1.15,2013-03-31 19:50:00,
2013-03-31 15:55:00,50.5,40.3,29.99,South,190,1.0,6.0,68,0.00,,,0.00,Wunderground v.1.15,2013-03-31 19:55:00,
2013-03-31 16:01:00,50.6,40.8,29.99,SSE,167,0.0,3.0,69,0.00,,,0.00,Wunderground v.1.15,2013-03-31 20:01:00,
2013-03-31 16:06:00,50.7,40.1,29.98,SE,138,4.0,6.0,67,0.00,,,0.00,Wunderground v.1.15,2013-03-31 20:06:00,
2013-03-31 16:12:00,50.8,39.8,29.98,SSE,148,1.0,5.0,66,0.00,,,0.00,Wunderground v.1.15,2013-03-31 20:12:00,
2013-03-31 16:17:00,50.8,39.8,29.98,South,188,4.0,8.0,66,0.00,,,0.00,Wunderground v.1.15,2013-03-31 20:17:00,
2013-03-31 16:22:00,50.7,40.5,29.98,SE,144,3.0,4.0,68,0.00,,,0.00,Wunderground v.1.15,2013-03-31 20:22:00,
2013-03-31 16:27:00,50.6,40.8,29.97,SSE,168,4.0,5.0,69,0.00,,,0.00,Wunderground v.1.15,2013-03-31 20:27:00,
2013-03-31 16:32:00,50.6,41.5,29.98,South,181,2.0,3.0,71,0.00,,,0.00,Wunderground v.1.15,2013-03-31 20:32:00,
2013-03-31 16:37:00,50.6,41.5,29.98,SE,128,4.0,7.0,71,0.00,,,0.00,Wunderground v.1.15,2013-03-31 20:37:00,
2013-03-31 16:42:00,50.5,41.8,29.97,South,182,0.0,3.0,72,0.00,,,0.00,Wunderground v.1.15,2013-03-31 20:42:00,
2013-03-31 16:47:00,50.4,41.7,29.97,SE,130,4.0,5.0,72,0.00,,,0.00,Wunderground v.1.15,2013-03-31 20:47:00,
2013-03-31 16:52:00,50.3,41.3,29.97,ESE,121,4.0,6.0,71,0.00,,,0.00,Wunderground v.1.15,2013-03-31 20:52:00,
2013-03-31 16:57:00,50.1,41.4,29.97,SSE,151,4.0,6.0,72,0.00,,,0.00,Wunderground v.1.15,2013-03-31 20:57:00,
2013-03-31 17:02:00,49.9,41.2,29.97,ESE,123,2.0,4.0,72,0.00,,,0.00,Wunderground v.1.15,2013-03-31 21:02:00,
2013-03-31 17:07:00,49.8,41.5,29.97,SE,142,3.0,5.0,73,0.00,,,0.00,Wunderground v.1.15,2013-03-31 21:07:00,
2013-03-31 17:12:00,49.7,41.4,29.96,SSE,163,0.0,6.0,73,0.00,,,0.00,Wunderground v.1.15,2013-03-31 21:12:00,
2013-03-31 17:17:00,49.6,41.3,29.96,SSE,156,0.0,6.0,73,0.00,,,0.00,Wunderground v.1.15,2013-03-31 21:17:00,
2013-03-31 17:22:00,49.5,41.2,29.95,SSE,156,1.0,2.0,73,0.00,,,0.00,Wunderground v.1.15,2013-03-31 21:22:00,
2013-03-31 17:27:00,49.5,41.2,29.95,NE,49,3.0,3.0,73,0.00,,,0.00,Wunderground v.1.15,2013-03-31 21:27:00,
2013-03-31 17:32:00,49.4,41.1,29.95,ESE,118,0.0,5.0,73,0.00,,,0.00,Wunderground v.1.15,2013-03-31 21:32:00,
2013-03-31 17:38:00,49.4,41.5,29.95,SE,143,4.0,5.0,74,0.00,,,0.00,Wunderground v.1.15,2013-03-31 21:38:00,
2013-03-31 17:43:00,49.4,41.5,29.95,ESE,120,1.0,4.0,74,0.00,,,0.00,Wunderground v.1.15,2013-03-31 21:43:00,
2013-03-31 17:48:00,49.3,41.4,29.95,SE,131,2.0,4.0,74,0.00,,,0.00,Wunderground v.1.15,2013-03-31 21:48:00,
2013-03-31 17:53:00,49.2,41.6,29.95,ESE,104,2.0,2.0,75,0.00,,,0.00,Wunderground v.1.15,2013-03-31 21:53:00,
2013-03-31 17:58:00,49.1,41.5,29.94,ESE,121,2.0,3.0,75,0.00,,,0.00,Wunderground v.1.15,2013-03-31 21:58:00,
2013-03-31 18:03:00,49.0,41.4,29.94,ESE,122,1.0,4.0,75,0.00,,,0.00,Wunderground v.1.15,2013-03-31 22:03:00,
2013-03-31 18:08:00,48.9,41.3,29.93,ESE,120,2.0,4.0,75,0.00,,,0.00,Wunderground v.1.15,2013-03-31 22:08:00,
2013-03-31 18:13:00,48.7,41.1,29.93,ESE,111,3.0,4.0,75,0.00,,,0.00,Wunderground v.1.15,2013-03-31 22:13:00,
2013-03-31 18:18:00,48.6,41.0,29.93,ESE,113,0.0,5.0,75,0.00,,,0.00,Wunderground v.1.15,2013-03-31 22:18:00,
2013-03-31 18:23:00,48.6,41.4,29.93,ESE,113,3.0,3.0,76,0.00,,,0.00,Wunderground v.1.15,2013-03-31 22:23:00,
2013-03-31 18:28:00,48.5,41.3,29.93,ESE,113,0.0,3.0,76,0.00,,,0.00,Wunderground v.1.15,2013-03-31 22:28:00,
2013-03-31 18:33:00,48.4,41.2,29.92,ESE,113,0.0,3.0,76,0.00,,,0.00,Wunderground v.1.15,2013-03-31 22:33:00,
2013-03-31 18:38:00,48.4,41.2,29.92,ESE,107,0.0,4.0,76,0.00,,,0.00,Wunderground v.1.15,2013-03-31 22:38:00,
2013-03-31 18:43:00,48.3,41.4,29.92,ESE,107,1.0,4.0,77,0.00,,,0.00,Wunderground v.1.15,2013-03-31 22:43:00,
2013-03-31 18:48:00,48.3,41.4,29.92,ESE,107,2.0,4.0,77,0.00,,,0.00,Wunderground v.1.15,2013-03-31 22:48:00,
2013-03-31 18:53:00,48.3,41.4,29.92,ESE,107,3.0,4.0,77,0.00,,,0.00,Wunderground v.1.15,2013-03-31 22:53:00,
2013-03-31 18:58:00,48.2,41.3,29.92,ESE,107,3.0,5.0,77,0.00,,,0.00,Wunderground v.1.15,2013-03-31 22:58:00,
2013-03-31 19:03:00,48.1,41.2,29.90,ESE,112,4.0,7.0,77,0.00,,,0.00,Wunderground v.1.15,2013-03-31 23:03:00,
2013-03-31 19:08:00,47.9,41.0,29.90,ESE,105,1.0,7.0,77,0.00,,,0.00,Wunderground v.1.15,2013-03-31 23:08:00,
2013-03-31 19:13:00,47.8,41.3,29.90,ESE,119,3.0,5.0,78,0.00,,,0.00,Wunderground v.1.15,2013-03-31 23:13:00,
2013-03-31 19:18:00,47.7,41.2,29.90,ESE,108,2.0,5.0,78,0.00,,,0.00,Wunderground v.1.15,2013-03-31 23:18:00,
2013-03-31 19:23:00,47.6,41.1,29.89,ESE,116,2.0,4.0,78,0.00,,,0.00,Wunderground v.1.15,2013-03-31 23:23:00,
2013-03-31 19:28:00,47.5,41.3,29.88,ESE,105,5.0,5.0,79,0.00,,,0.00,Wunderground v.1.15,2013-03-31 23:28:00,
2013-03-31 19:33:00,47.4,41.2,29.88,SE,136,4.0,4.0,79,0.00,,,0.00,Wunderground v.1.15,2013-03-31 23:33:00,
2013-03-31 19:38:00,47.4,41.5,29.87,ESE,122,1.0,5.0,80,0.00,,,0.00,Wunderground v.1.15,2013-03-31 23:38:00,
2013-03-31 19:44:00,47.3,41.4,29.86,SE,127,4.0,6.0,80,0.00,,,0.00,Wunderground v.1.15,2013-03-31 23:44:00,
2013-03-31 19:49:00,47.2,41.3,29.86,East,88,4.0,6.0,80,0.00,,,0.00,Wunderground v.1.15,2013-03-31 23:49:00,
2013-03-31 19:54:00,47.2,41.7,29.86,ESE,116,3.0,7.0,81,0.00,,,0.00,Wunderground v.1.15,2013-03-31 23:54:00,
2013-03-31 19:59:00,47.2,41.7,29.85,ESE,123,4.0,7.0,81,0.00,,,0.00,Wunderground v.1.15,2013-03-31 23:59:00,
2013-03-31 20:04:00,47.1,41.6,29.85,ESE,121,4.0,8.0,81,0.00,,,0.00,Wunderground v.1.15,2013-04-01 00:04:00,
2013-03-31 20:09:00,47.1,41.6,29.85,SE,134,4.0,8.0,81,0.00,,,0.00,Wunderground v.1.15,2013-04-01 00:09:00,
2013-03-31 20:14:00,47.0,41.5,29.85,SE,135,0.0,6.0,81,0.00,,,0.00,Wunderground v.1.15,2013-04-01 00:14:00,
2013-03-31 20:19:00,47.0,41.5,29.85,ESE,115,2.0,6.0,81,0.00,,,0.00,Wunderground v.1.15,2013-04-01 00:19:00,
2013-03-31 20:24:00,46.9,41.4,29.84,SE,125,5.0,5.0,81,0.00,,,0.00,Wunderground v.1.15,2013-04-01 00:24:00,
2013-03-31 20:29:00,46.9,41.4,29.84,SE,124,3.0,7.0,81,0.00,,,0.00,Wunderground v.1.15,2013-04-01 00:29:00,
2013-03-31 20:34:00,46.9,41.7,29.83,SE,130,6.0,7.0,82,0.00,,,0.00,Wunderground v.1.15,2013-04-01 00:34:00,
2013-03-31 20:39:00,47.0,41.8,29.83,SSE,147,4.0,8.0,82,0.00,,,0.00,Wunderground v.1.15,2013-04-01 00:39:00,
2013-03-31 20:44:00,47.1,41.9,29.83,ESE,110,3.0,9.0,82,0.00,,,0.00,Wunderground v.1.15,2013-04-01 00:44:00,
2013-03-31 20:49:00,47.2,42.3,29.84,ESE,119,7.0,14.0,83,0.00,,,0.00,Wunderground v.1.15,2013-04-01 00:49:00,
2013-03-31 20:54:00,47.0,42.4,29.83,SE,134,3.0,15.0,84,0.00,,,0.00,Wunderground v.1.15,2013-04-01 00:54:00,
2013-03-31 20:59:00,46.8,42.5,29.82,SE,130,9.0,15.0,85,0.00,,,0.00,Wunderground v.1.15,2013-04-01 00:59:00,
2013-03-31 21:04:00,46.6,42.3,29.82,SE,140,9.0,11.0,85,0.00,,,0.00,Wunderground v.1.15,2013-04-01 01:04:00,
2013-03-31 21:09:00,46.4,42.1,29.81,SSE,149,1.0,11.0,85,0.00,,,0.00,Wunderground v.1.15,2013-04-01 01:09:00,
2013-03-31 21:14:00,46.3,42.0,29.82,SSE,148,5.0,11.0,85,0.00,,,0.00,Wunderground v.1.15,2013-04-01 01:14:00,
2013-03-31 21:19:00,46.2,41.6,29.81,SE,139,9.0,12.0,84,0.00,,,0.00,Wunderground v.1.15,2013-04-01 01:19:00,
2013-03-31 21:24:00,46.1,41.2,29.80,SE,130,4.0,8.0,83,0.00,,,0.00,Wunderground v.1.15,2013-04-01 01:24:00,
2013-03-31 21:29:00,46.1,41.2,29.79,SSE,148,0.0,8.0,83,0.00,,,0.00,Wunderground v.1.15,2013-04-01 01:29:00,
2013-03-31 21:34:00,46.0,41.1,29.79,ESE,121,5.0,7.0,83,0.00,,,0.00,Wunderground v.1.15,2013-04-01 01:34:00,
2013-03-31 21:39:00,46.0,41.1,29.79,ESE,112,3.0,7.0,83,0.00,,,0.00,Wunderground v.1.15,2013-04-01 01:39:00,
2013-03-31 21:44:00,45.9,41.3,29.78,ESE,104,1.0,7.0,84,0.00,,,0.00,Wunderground v.1.15,2013-04-01 01:44:00,
2013-03-31 21:49:00,45.9,41.3,29.77,ESE,121,4.0,7.0,84,0.00,,,0.00,Wunderground v.1.15,2013-04-01 01:49:00,
2013-03-31 21:54:00,46.0,41.7,29.77,ESE,116,8.0,10.0,85,0.00,,,0.00,Wunderground v.1.15,2013-04-01 01:54:00,
2013-03-31 21:59:00,46.0,42.0,29.77,SE,144,2.0,10.0,86,0.00,,,0.00,Wunderground v.1.15,2013-04-01 01:59:00,
2013-03-31 22:04:00,46.0,42.6,29.76,SE,130,0.0,10.0,88,0.00,,,0.00,Wunderground v.1.15,2013-04-01 02:04:00,
2013-03-31 22:09:00,46.0,42.9,29.76,ESE,115,6.0,10.0,89,0.00,,,0.00,Wunderground v.1.15,2013-04-01 02:09:00,
2013-03-31 22:14:00,45.9,43.1,29.76,SE,140,7.0,7.0,90,0.00,,,0.00,Wunderground v.1.15,2013-04-01 02:14:00,
2013-03-31 22:19:00,45.8,43.3,29.76,ESE,112,2.0,8.0,91,0.00,,,0.01,Wunderground v.1.15,2013-04-01 02:19:00,
2013-03-31 22:24:00,45.7,43.2,29.75,ESE,117,4.0,4.0,91,0.00,,,0.01,Wunderground v.1.15,2013-04-01 02:24:00,
2013-03-31 22:29:00,45.6,43.4,29.74,ESE,106,5.0,7.0,92,0.06,,,0.02,Wunderground v.1.15,2013-04-01 02:29:00,
2013-03-31 22:34:00,45.4,43.5,29.74,ESE,120,5.0,7.0,93,0.10,,,0.03,Wunderground v.1.15,2013-04-01 02:34:00,
2013-03-31 22:39:00,45.3,43.4,29.73,ESE,106,6.0,7.0,93,0.13,,,0.04,Wunderground v.1.15,2013-04-01 02:39:00,
2013-03-31 22:44:00,45.2,43.6,29.73,SE,140,2.0,8.0,94,0.10,,,0.05,Wunderground v.1.15,2013-04-01 02:44:00,
2013-03-31 22:49:00,45.1,43.5,29.71,NNE,25,3.0,8.0,94,0.10,,,0.05,Wunderground v.1.15,2013-04-01 02:49:00,
2013-03-31 22:54:00,45.1,43.5,29.71,ESE,121,1.0,6.0,94,0.11,,,0.06,Wunderground v.1.15,2013-04-01 02:54:00,
2013-03-31 22:59:00,45.1,43.8,29.70,SE,124,3.0,9.0,95,0.15,,,0.07,Wunderground v.1.15,2013-04-01 02:59:00,
2013-03-31 23:04:00,45.1,43.8,29.70,SE,130,4.0,9.0,95,0.12,,,0.08,Wunderground v.1.15,2013-04-01 03:04:00,
2013-03-31 23:09:00,45.2,43.9,29.69,ESE,105,0.0,9.0,95,0.11,,,0.09,Wunderground v.1.15,2013-04-01 03:09:00,
2013-03-31 23:14:00,45.2,44.1,29.68,ESE,111,0.0,4.0,96,0.10,,,0.10,Wunderground v.1.15,2013-04-01 03:14:00,
2013-03-31 23:19:00,45.4,44.3,29.68,East,101,4.0,7.0,96,0.08,,,0.11,Wunderground v.1.15,2013-04-01 03:19:00,
2013-03-31 23:24:00,45.5,44.4,29.67,SE,144,2.0,5.0,96,0.08,,,0.11,Wunderground v.1.15,2013-04-01 03:24:00,
2013-03-31 23:29:00,45.7,44.6,29.67,SE,126,10.0,10.0,96,0.08,,,0.12,Wunderground v.1.15,2013-04-01 03:29:00,
2013-03-31 23:34:00,45.8,44.7,29.66,SE,128,11.0,12.0,96,0.08,,,0.13,Wunderground v.1.15,2013-04-01 03:34:00,
2013-03-31 23:39:00,46.1,45.0,29.65,ESE,116,7.0,12.0,96,0.08,,,0.13,Wunderground v.1.15,2013-04-01 03:39:00,
2013-03-31 23:45:00,46.4,45.3,29.65,SE,136,7.0,14.0,96,0.06,,,0.13,Wunderground v.1.15,2013-04-01 03:45:00,
2013-03-31 23:50:00,46.4,45.3,29.64,SSW,193,0.0,14.0,96,0.05,,,0.14,Wunderground v.1.15,2013-04-01 03:50:00,
2013-03-31 23:54:00,46.5,45.4,29.63,SE,127,7.0,8.0,96,0.05,,,0.14,Wunderground v.1.15,2013-04-01 03:54:00,
2013-03-31 23:59:00,46.5,45.4,29.63,SE,127,10.0,11.0,96,0.04,,,0.14,Wunderground v.1.15,2013-04-01 03:59:00,